[Iaude] MPEC F58: 2017 QL33 [a=1.84,e=0.48,i=1.7,H=21.2,PHA]

mpec at mpcdb1.cfa.harvard.edu mpec at mpcdb1.cfa.harvard.edu
Fri Mar 22 06:33:16 EDT 2019


M.P.E.C. 2019-F58                                Issued 2019 Mar. 22, 10:29 UT
 
     The Minor Planet Electronic Circulars contain information on unusual
         minor planets and routine data on comets.  They are published
    on behalf of Division F of the International Astronomical Union by the
          Minor Planet Center, Smithsonian Astrophysical Observatory,
                          Cambridge, MA 02138, U.S.A.

             Prepared using the Tamkin Foundation Computer Network

                              MPC at CFA.HARVARD.EDU
            URL https://www.minorplanetcenter.net/    ISSN 1523-6714


                                   2017 QL33
 
                          Revision to MPEC 2017-Q158
 
Additional Observations:
     K17Q33L  C2012 08 17.46128421 49 57.633-15 54 52.51         21.3 GVEF058F51
     K17Q33L  C2012 08 17.47554821 49 56.138-15 54 58.81         21.3 GVEF058F51
     K17Q33L  C2012 08 21.38688321 43 14.157-16 25 09.48         21.3 GVEF058F51
     K17Q33L  C2012 08 21.40072421 43 12.601-16 25 15.92         21.2 GVEF058F51
     K17Q33L  C2012 08 21.41486321 43 11.003-16 25 22.64         21.4 GVEF058F51
     K17Q33L  C2012 08 21.42870021 43 09.439-16 25 28.97         21.1 GVEF058F51
 
Observer details:
F51 Pan-STARRS 1, Haleakala.  Observers J. Bulger, K. Chambers, T. Lowe,
    E. Magnier, A. Schultz, M. Willman.  Measurers S. Chastel, M. Huber,
    Y. Ramanjooloo, R. Wainscoat, R. Weryk.  1.8-m Ritchey-Chretien + CCD.
 
First and last observations above in comparison with prediction:
Residuals in seconds of arc, reference and Delta-T
120817 F51 55.6+ 20.3+    120821 F51 57.2+ 20.4+    MPO441100   +0.0067 day
 
Orbital elements:
2017 QL33                                           PHA, Earth MOID = 0.0205 AU
Epoch 2019 Apr. 27.0 TT = JDT 2458600.5                 MPC
M 199.85595              (2000.0)            P               Q
n   0.39532064     Peri.   71.13287     +0.35714128     -0.93404976
a   1.8386669      Node   357.94146     +0.84528942     +0.32369338
e   0.4800102      Incl.    1.71871     +0.39741151     +0.15090941
P   2.49           H   21.2           G   0.15           U   0
Residuals in seconds of arc
120817 F51  0.0   0.1-    171205 204  0.0   0.4-    180114 K38  0.1+  0.0
120817 F51  0.0   0.1+    171205 204  0.1+  0.1+    180114 K38  0.0   0.0
120821 F51  0.1-  0.0     171207 691  0.0   0.1+    180114 K38  0.0   0.0
120821 F51  0.0   0.0     171207 691  0.0   0.1+    180114 703  0.1-  0.1+
120821 F51  0.0   0.1-    171218 T08  0.2-  0.1-    180114 703  0.1+  0.2+
120821 F51  0.1+  0.0     171218 T08  0.0   0.4+    180114 703  0.0   0.0
170801 F51  0.2-  0.3+    171218 T08  0.2+  0.1-    180114 703  0.7+  0.6+
170801 F51  0.2-  0.3+    171218 T08  0.5+  0.6-    180114 T05  0.0   0.0
170801 F51  0.1-  0.4+    171220 691  0.2+  0.1-    180114 T05  0.2+  0.1+
170801 F51  0.1-  0.1+    171220 691  0.2+  0.1+    180114 T05  0.0   0.1+
170817 F51  0.1-  0.0     171220 691  0.1+  0.0     180114 T05  0.0   0.1+
170817 F51  0.2-  0.1+    171221 160  0.2+  0.0     180115 T08  0.1+  0.0
170817 F51  0.2-  0.3+    171221 160  0.1+  0.1-    180115 T08  0.0   0.0
170817 F51  0.1-  0.2+    171221 160  0.7+  0.0     180115 T08  0.1+  0.1+
170828 G96  0.1-  0.2+    171223 F51  0.0   0.0     180115 T08  0.0   0.1+
170828 G96  0.2+  0.1+    171223 F51  0.0   0.0     180117 703  0.1+  0.2+
170828 G96  0.2-  0.7+    171223 160  0.1+  0.6-    180117 703  0.0   0.1-
170828 G96  0.4-  0.1-    171223 160  0.1-  0.6-    180117 703  0.2+  0.0
170828 I52  0.1+  1.1+    171223 160  0.2-  0.8-    180117 703  0.1+  0.1+
170828 I52  0.0   0.1+    171225 T05  0.1+  0.5-    180118 160  0.2-  0.1-
170828 I52  0.4+  0.2+    171225 T05  0.0   0.2-    180118 160  0.1+  0.1+
170828 033  0.1-  0.1-    171225 T05  0.1+  0.3-    180118 160  0.1+  0.0
170828 033  0.3-  0.1-    171225 T05  0.1+  0.3-    180118 703  0.0   0.4+
170828 033  0.0   0.0     171225 B67  0.4+  0.4+    180118 703  0.1-  0.2+
170828 033  0.0   0.1-    171225 B67  0.1+  0.3+    180118 703  0.0   0.0
170828 033  0.3-  0.0     171225 B67  0.1+  0.5+    180118 L04  0.2+  0.1-
170828 033  0.1-  0.1+    171225 B67  0.1-  0.6+    180118 L04  0.3+  0.1-
170828 033  0.2-  0.0     171225 B67  0.5+  1.0+    180118 L04  0.1+  0.1-
170830 H21  0.2-  0.0     171226 K74  0.4-  0.3-    180119 T08  0.0   0.0
170830 I52  0.7-  0.6+    171226 K74  0.0   0.6-    180119 T08  0.1-  0.2+
170830 I52  0.2-  0.6-    171226 K74  0.1+  0.5-    180119 T08  0.2+  0.1-
170830 I52  0.3-  0.6-    171226 K74  0.2+  0.3-    180119 T08  0.2+  0.1+
170830 H21  0.1-  0.0     171226 K74  0.0   0.5-    180120 T08  0.1+  0.0
170830 H21  0.1+  0.0     171228 Z80  0.7+  0.3-    180120 T08  0.6+  0.3+
170830 H21  0.4-  0.2-    171228 Z80  1.1+  0.6+    180120 T08  0.1-  0.1+
170910 291  0.4-  0.0     171228 Z80  0.6+  0.6+    180120 T08  0.0   0.1+
170910 291  0.2-  0.1+    171228 Z80  0.3-  0.2-    180122 G96  0.1+  0.2+
170910 291  0.5-  0.3+    171228 Z80  0.5+  1.0+    180122 G96  0.0   0.2+
170913 F51  0.2-  0.0     171228 Z80  0.1+  0.3+    180122 G96  0.1+  0.2+
170913 F51  0.1-  0.0     171228 Z80  0.5-  0.1+    180122 G96  0.1+  0.3+
170913 F51  0.1-  0.1+    171228 Z80  0.9+  0.5+    180122 130  0.1+  0.5+
170914 F51  0.2-  0.1+    171228 Z80  0.3+  0.4-    180122 130  0.1-  0.1-
170914 F51  0.1-  0.1+    171228 Z80  0.4+  0.9+    180122 130  0.1-  0.1-
170914 F51  0.2-  0.1+    171229 T05  0.1+  0.5-    180122 130  0.1-  0.0
170914 F51  0.1-  0.1+    171229 T05  0.1+  0.1+    180123 703  0.0   0.0
170921 I52  0.0   0.3+    171229 T05  0.2-  0.5-    180123 703  0.1+  0.1+
170921 I52  0.7-  0.1-    171229 T05  0.4+  0.2+    180123 703  0.1-  0.0
170921 I52  0.3-  0.0     171229 T05  0.1-  0.4-    180123 703  0.2+  0.0
171005 695  0.4-  0.0     171229 T05  0.1+  0.6-    180126 703  0.0   0.2+
171005 695  0.0   0.2-    171229 T05  0.2+  0.4-    180126 703  0.1+  0.2+
171005 695  0.3-  0.2+    171231 T08  0.1-  0.1+    180126 703  0.3+  0.0
171011 F51  0.0   0.0     171231 T08  0.1+  0.1-    180126 703  0.2-  0.1+
171011 F51  0.0   0.0     171231 T08  0.2+  0.3-    180203 W34  0.5-  0.5-
171011 F51  0.1+  0.0     171231 T08  0.1+  0.5-    180203 W34  0.5+  1.0+
171011 F51  0.1+  0.0     171231 K74  0.1-  0.2+    180203 W34  0.9+  2.4+
171012 691  0.1+  0.4+    171231 K74  0.2+  0.3+    180205 703  0.3+  0.1-
171012 691  0.3+  0.3+    171231 K74  0.2-  0.4+    180205 703  0.0   0.2+
171012 691  0.2-  0.5+    171231 K74  0.2+  0.0     180205 703  0.2+  0.2+
171016 691  0.3-  0.1+    180104 T08  0.1+  0.3-    180205 703  0.0   0.3+
171016 691  0.3+  0.1-    180104 T08  0.0   0.2-    180207 I41  0.2+  0.1-
171016 691  0.4+  0.4+    180104 T08  0.2+  0.3-    180207 I41  0.0   0.2-
171019 291  0.2+  0.1-    180104 T08  0.1+  0.3+    180207 I41  0.2+  0.1-
171019 291  0.2-  0.1-    180104 T08  0.2+  0.1+    180207 I41  0.0   0.1-
171019 291  0.3-  0.1-    180104 T08  0.0   0.2+    180207 I41  0.1+  0.0
171020 691  0.1-  0.5+    180104 T08  0.0   0.2-    180207 I41  0.2+  0.1-
171020 291  0.1+  0.2+    180104 T08  0.1-  0.1-    180207 I41  0.0   0.2-
171020 691  0.7+  1.7+    180104 A53  0.3+  0.3+    180207 I41  0.0   0.0
171020 291  0.2-  0.2-    180104 A53  0.0   0.3+    180209 I41  0.1+  0.1-
171024 691  0.2+  0.2-    180104 A53  0.4+  0.6+    180209 I41  0.1+  0.1-
171024 691  0.2+  0.1+    180104 A53  0.2+  0.7+    180209 I41  0.0   0.0
171024 691  0.3+  0.2+    180104 A53  0.0   0.6+    180209 I41  0.2+  0.0
171107 F51  0.0   0.0     180104 A53  0.1+  0.1+    180209 I41  0.1+  0.0
171107 F51  0.0   0.1-    180104 A53  0.2+  0.1+    180209 I41  0.1+  0.0
171107 F51  0.1+  0.0     180105 703  0.1+  0.2+    180209 I41  0.1-  0.0
171107 F51  0.1+  0.0     180105 703  0.4+  0.6+    180209 I41  0.0   0.2-
171110 691  0.0   0.2+    180105 703  0.0   0.1+    180209 I41  0.0   0.2-
171110 691  0.0   0.0     180105 703  0.2+  0.2-    180209 I41  0.1+  0.1-
171110 691  0.6+  0.2+    180112 160  0.4+  0.1+    180211 G96  0.0   0.1+
171111 691  0.1+  0.2+    180112 160  0.2+  0.2+    180211 G96  0.1+  0.1+
171111 691  0.3+  0.5+    180112 160  0.2+  0.1+    180211 G96  0.0   0.1+
171111 691  0.0   0.2-    180113 H15  0.1+  0.3+    180211 G96  0.1-  0.2+
171115 691  0.1+  0.1+    180113 H15  0.0   0.0     180212 F51  0.1+  0.1+
171115 691  0.2+  0.2+    180113 H15  0.7+  1.8-    180212 F51  0.1+  0.1+
171120 G96  0.0   0.0     180113 F51  0.0   0.1-    180212 F51  0.1+  0.1+
171120 G96  0.3+  0.2-    180113 F51  0.0   0.1-    180212 F51  0.0   0.1+
171120 G96  0.0   0.1-    180113 F51  0.0   0.0     180212 T08  0.4+  1.0+
171120 G96  0.1+  0.5-    180113 F51  0.0   0.0     180212 T08  0.3+  0.9+
171205 807  0.1-  0.0     180114 160  0.3+  0.2-    180212 T08  0.1-  0.2+
171205 807  0.2-  0.1-    180114 160  0.1-  0.4+    180212 T08  0.0   1.3+
171205 807  0.4-  0.1+    180114 160  0.1+  0.3+    180307 I52  0.0   0.3+
171205 204  0.2-  0.2-    180114 K38  0.1+  0.0     180307 I52  0.2-  0.3-

Ephemeris:
2017 QL33                a,e,i = 1.84, 0.48, 2                   q = 0.9561
Date    TT    R. A. (2000) Decl.     Delta      r     Elong.  Phase     V
2019 02 20    17 41 31.9 -24 49 46   2.9851  2.7189    65.0    19.2    26.7
...
2019 03 07    17 58 36.6 -25 01 42   2.7820  2.7213    76.2    20.7    26.6
...
2019 03 15    18 06 25.4 -25 06 03   2.6674  2.7208    82.4    21.2    26.5
...
2019 03 21    18 11 35.3 -25 08 52   2.5798  2.7196    87.2    21.5    26.5
2019 03 22    18 12 23.2 -25 09 19   2.5650  2.7193    88.0    21.5    26.5
2019 03 23    18 13 09.9 -25 09 45   2.5503  2.7190    88.8    21.5    26.5
...
2019 03 29    18 17 26.0 -25 12 28   2.4615  2.7169    93.8    21.5    26.4
...
2019 04 06    18 21 55.7 -25 16 28   2.3432  2.7131   100.7    21.2    26.3
...
2019 04 21    18 26 05.0 -25 26 38   2.1272  2.7025   114.4    19.8    26.0

A. U. Tomatic                (C) Copyright 2019 MPC           M.P.E.C. 2019-F58



More information about the Iaude mailing list